TimeEDT,TemperatureF,Dew PointF,Humidity,Sea Level PressureIn,VisibilityMPH,Wind Direction,Wind SpeedMPH,Gust SpeedMPH,PrecipitationIn,Events,Conditions,WindDirDegrees,DateUTC
12:00 AM,60.8,57.2,88,30.00,15.0,SW,3.5,-,N/A,,Overcast,230,2012-10-23 04:00:00
1:00 AM,59.0,57.2,94,30.01,12.0,WNW,4.6,-,N/A,Rain,Light Rain Showers,290,2012-10-23 05:00:00
2:00 AM,60,59,95,30.02,12,West,5.8,,,Rain,Heavy Rain Showers,260,2012-10-23 06:00:00
2:00 AM,60.8,59.0,94,30.02,12.0,West,5.8,-,N/A,Rain,Rain Showers,260,2012-10-23 06:00:00
3:00 AM,59.0,59.0,100,29.96,15.0,SSE,8.1,-,N/A,Rain,Light Rain Showers,160,2012-10-23 07:00:00
4:00 AM,60.8,59.0,94,29.93,15.0,South,8.1,-,N/A,Rain,Light Rain Showers,180,2012-10-23 08:00:00
4:24 AM,-9999,-9999,N/A,-9999,15.0,South,10.4,-,N/A,,Overcast,180,2012-10-23 08:24:00
5:00 AM,62.6,57.2,82,29.92,15.0,SSW,10.4,-,N/A,,Overcast,200,2012-10-23 09:00:00
5:47 AM,-9999,-9999,N/A,-9999,15.0,SSW,9.2,-,N/A,Rain,Light Rain Showers,210,2012-10-23 09:47:00
6:00 AM,62.6,57.2,82,29.92,15.0,SW,11.5,-,N/A,Rain,Light Rain Showers,220,2012-10-23 10:00:00
6:21 AM,-9999,-9999,N/A,-9999,15.0,SW,11.5,-,N/A,,Overcast,220,2012-10-23 10:21:00
7:00 AM,60.8,57.2,88,29.93,15.0,SSW,10.4,-,N/A,,Overcast,210,2012-10-23 11:00:00
8:00 AM,61,56,80,29.94,12,SSW,6.9,,,,Partly Cloudy,210,2012-10-23 12:00:00
8:00 AM,60.8,57.2,88,29.94,12.0,SSW,5.8,-,N/A,,Overcast,210,2012-10-23 12:00:00
9:00 AM,60.8,57.2,88,29.95,15.0,SW,6.9,-,N/A,,Mostly Cloudy,220,2012-10-23 13:00:00
10:00 AM,62.6,57.2,82,29.96,15.0,SW,8.1,-,N/A,,Mostly Cloudy,230,2012-10-23 14:00:00
11:00 AM,62.6,57.2,82,29.97,15.0,WSW,9.2,-,N/A,,Overcast,240,2012-10-23 15:00:00
12:00 PM,64.4,57.2,77,29.98,15.0,WSW,10.4,-,N/A,,Overcast,250,2012-10-23 16:00:00
1:00 PM,64.4,57.2,77,29.98,15.0,West,8.1,-,N/A,,Overcast,260,2012-10-23 17:00:00
2:00 PM,64,57,73,29.97,15,West,6.9,,,,Overcast,260,2012-10-23 18:00:00
2:00 PM,64.4,57.2,77,29.97,15.0,West,5.8,-,N/A,,Overcast,280,2012-10-23 18:00:00
3:00 PM,66.2,59.0,78,29.95,12.0,NW,4.6,-,N/A,,Mostly Cloudy,320,2012-10-23 19:00:00
4:00 PM,68.0,60.8,78,29.94,8.0,NNW,6.9,-,N/A,,Mostly Cloudy,330,2012-10-23 20:00:00
5:00 PM,68.0,60.8,78,29.96,8.0,South,3.5,-,N/A,,Mostly Cloudy,170,2012-10-23 21:00:00
6:00 PM,64.4,59.0,83,29.99,7.0,South,9.2,-,N/A,,Overcast,190,2012-10-23 22:00:00
7:00 PM,62.6,60.8,94,29.99,12.0,South,6.9,-,N/A,,Mostly Cloudy,190,2012-10-23 23:00:00
8:00 PM,62,60,92,30.00,15,South,5.8,,,,Mostly Cloudy,180,2012-10-24 00:00:00
8:00 PM,62.6,60.8,94,30.00,15.0,South,6.9,-,N/A,,Mostly Cloudy,180,2012-10-24 00:00:00
9:00 PM,62.6,60.8,94,30.00,15.0,South,4.6,-,N/A,,Mostly Cloudy,190,2012-10-24 01:00:00
10:00 PM,60.8,59.0,94,30.00,15.0,SSE,5.8,-,N/A,,Scattered Clouds,160,2012-10-24 02:00:00
11:00 PM,60.8,59.0,94,30.01,15.0,South,6.9,-,N/A,,Mostly Cloudy,190,2012-10-24 03:00:00